EW5425 Weather Reports


time (UTC)temp
F
wind
direction
speed
knots
gust
knots
rain 1hr
in
rain 24hr
in
rain mn
in
humidity
%
barometer
mb
20260510175934 50 193 4.3 16.5 0.00 0.15 0.00 52 1016.4
20260510174934 50 51 3.5 10.4 0.00 0.15 0.00 49 1016.2
20260510173924 49 291 4.3 16.5 0.00 0.15 0.00 50 1016.2
20260510172924 48 5 7.8 17.4 0.00 0.15 0.00 50 1015.9
20260510171924 49 0 5.2 13.0 0.00 0.15 0.00 53 1016.0
20260510170924 49 343 4.3 11.3 0.00 0.15 0.00 53 1015.8
20260510165924 49 304 5.2 10.4 0.00 0.15 0.00 54 1015.8
20260510165844 49 14 5.2 13.0 0.00 0.15 0.00 59 1015.6
20260510163924 48 0 4.3 12.2 0.00 0.15 0.00 61 1015.5
20260510162924 48 309 6.1 13.9 0.00 0.15 0.00 61 1015.6
20260510161924 48 345 4.3 13.0 0.00 0.15 0.00 59 1015.5
20260510160921 49 5 4.3 13.0 0.00 0.15 0.00 62 1015.4
20260510155922 49 189 4.3 13.9 0.00 0.15 0.00 61 1015.4
20260510154923 48 313 4.3 10.4 0.00 0.15 0.00 59 1015.3
20260510153922 49 285 3.5 10.4 0.00 0.15 0.00 61 1015.2
20260510152922 49 5 4.3 13.0 0.00 0.15 0.00 62 1015.0
20260510152330 48 355 5.2 14.8 0.00 0.15 0.00 63 1014.5
20260510151955 49 323 3.5 9.6 0.00 0.15 0.00 65 1014.7
20260510145922 48 241 5.2 15.6 0.00 0.15 0.00 62 1014.4
20260510144922 49 238 4.3 10.4 0.00 0.15 0.00 63 1014.3
20260510143921 49 219 3.5 7.8 0.00 0.15 0.00 62 1014.2
20260510142922 47 259 4.3 12.2 0.00 0.15 0.00 65 1014.1
20260510141922 48 19 4.3 13.9 0.00 0.15 0.00 63 1013.9
20260510140921 48 346 4.3 9.6 0.00 0.15 0.00 62 1013.8
20260510140436 47 168 4.3 11.3 0.00 0.15 0.00 64 1013.8
20260510140327 47 0 4.3 9.6 0.00 0.15 0.00 64 1013.6
20260510133922 46 321 4.3 10.4 0.00 0.15 0.00 68 1013.5
20260510132915 46 0 5.2 12.2 0.00 0.15 0.00 67 1013.4
20260510131916 46 57 3.5 8.7 0.00 0.15 0.00 67 1013.2
20260510131844 45 355 4.3 10.4 0.00 0.15 0.00 67 1013.2
20260510125916 45 24 5.2 13.9 0.00 0.15 0.00 68 1013.1
20260510124915 45 291 3.5 7.0 0.00 0.15 0.00 69 1013.0
20260510124349 44 286 3.5 7.8 0.00 0.15 0.00 69 1013.0
20260510123346 44 331 3.5 7.8 0.00 0.15 0.00 70 1013.0
20260510121905 44 293 2.6 7.8 0.00 0.15 0.00 72 1012.8
20260510120906 43 195 2.6 7.0 0.00 0.15 0.00 73 1012.7
20260510115905 42 240 2.6 7.8 0.00 0.15 0.00 74 1012.5
20260510115306 40 306 3.5 8.7 0.00 0.15 0.00 78 1012.4
20260510114939 41 234 3.5 7.8 0.00 0.15 0.00 76 1012.5
20260510112906 39 76 1.7 4.3 0.00 0.15 0.00 79 1012.3
20260510111905 39 19 3.5 8.7 0.00 0.15 0.00 80 1012.1
20260510110905 38 190 1.7 4.3 0.00 0.15 0.00 81 1012.0
20260510105905 38 277 1.7 6.1 0.00 0.15 0.00 82 1011.7
20260510104905 37 271 0.9 4.3 0.00 0.15 0.00 82 1011.6
20260510104351 37 154 0.9 3.5 0.00 0.15 0.00 82 1011.3
20260510102903 37 277 0.0 2.6 0.00 0.15 0.00 82 1011.2
20260510101903 37 259 0.9 3.5 0.00 0.15 0.00 82 1011.0
20260510100903 37 153 0.0 1.7 0.00 0.15 0.00 82 1010.8
20260510095904 38 178 0.9 3.5 0.00 0.15 0.00 81 1010.7
20260510094903 38 215 0.9 6.1 0.00 0.15 0.00 81 1010.6
20260510093903 38 227 0.9 2.6 0.00 0.15 0.00 80 1010.2
20260510092903 38 269 0.9 1.7 0.00 0.15 0.00 79 1010.1
20260510091858 38 328 0.9 2.6 0.00 0.15 0.00 79 1010.0
20260510090857 39 317 0.0 2.6 0.00 0.15 0.00 78 1009.9
20260510085857 39 269 0.9 4.3 0.00 0.15 0.00 78 1009.8
20260510084857 39 349 1.7 6.1 0.00 0.15 0.00 77 1009.7
20260510083857 39 355 2.6 7.0 0.00 0.15 0.00 77 1009.5
20260510082857 39 270 1.7 6.1 0.00 0.15 0.00 77 1009.4
20260510081856 39 0 0.9 4.3 0.00 0.15 0.00 77 1009.3
20260510080857 39 319 1.7 5.2 0.00 0.15 0.00 77 1009.2
20260510075857 39 344 1.7 4.3 0.00 0.15 0.00 78 1009.2
20260510075330 39 334 0.9 7.0 0.00 0.15 0.00 79 1009.2
20260510073851 39 154 0.0 2.6 0.00 0.15 0.00 79 1009.0
20260510072851 39 216 0.0 1.7 0.00 0.15 0.00 78 1008.8
20260510072328 40 152 0.0 2.6 0.00 0.15 0.00 77 1008.7
20260510070851 40 224 0.9 1.7 0.00 0.15 0.00 77 1008.4
20260510065850 41 144 0.9 1.7 0.00 0.15 0.00 75 1008.4
20260510065334 41 165 0.9 3.5 0.00 0.15 0.00 74 1008.4
20260510063851 41 196 0.9 2.6 0.00 0.15 0.00 73 1008.4
20260510062851 41 355 0.9 4.3 0.00 0.15 0.00 72 1008.4
20260510061840 41 34 0.0 3.5 0.00 0.15 0.00 71 1008.3
20260510060841 42 305 0.9 4.3 0.00 0.15 0.00 71 1008.2
20260510055840 42 13 0.9 4.3 0.00 0.15 0.00 70 1008.2
20260510054841 42 244 1.7 4.3 0.00 0.15 0.00 70 1008.1
20260510053841 42 240 1.7 4.3 0.00 0.15 0.00 70 1008.1
20260510053329 42 355 1.7 5.2 0.00 0.15 0.00 69 1008.0
20260510051841 42 306 1.7 4.3 0.00 0.15 0.00 70 1008.0
20260510050840 42 317 2.6 7.8 0.00 0.15 0.00 71 1007.8
20260510045840 42 336 3.5 8.7 0.00 0.15 0.00 71 1007.7
20260510044833 43 14 2.6 8.7 0.00 0.15 0.00 71 1007.6
20260510043832 43 328 3.5 8.7 0.00 0.15 0.00 71 1007.4
20260510042830 43 87 3.5 12.2 0.00 0.15 0.00 71 1007.2
20260510042328 43 297 2.6 7.8 0.00 0.15 0.00 72 1007.1
20260510040830 43 344 2.6 7.8 0.00 0.15 0.00 71 1007.0
20260510035831 44 29 2.6 9.6 0.00 0.15 0.15 71 1006.8
20260510034830 44 298 2.6 7.0 0.00 0.15 0.15 71 1006.7
20260510033831 44 302 3.5 8.7 0.00 0.15 0.15 70 1006.5
20260510032833 45 346 2.6 7.8 0.00 0.15 0.15 68 1006.3
20260510032323 45 171 1.7 7.8 0.00 0.15 0.15 69 1006.1
20260510030828 45 314 0.9 7.8 0.00 0.15 0.15 69 1006.1
20260510025829 45 311 1.7 4.3 0.00 0.15 0.15 69 1005.8
20260510024828 46 227 1.7 5.2 0.00 0.15 0.15 68 1005.7
20260510023829 46 277 0.9 6.1 0.00 0.15 0.15 67 1005.7
20260510022823 46 246 0.9 4.3 0.00 0.15 0.15 65 1005.6
20260510021823 47 48 0.9 4.3 0.00 0.15 0.15 64 1005.4
20260510020823 47 311 1.7 4.3 0.00 0.15 0.15 62 1005.2
20260510015823 47 23 1.7 6.1 0.00 0.15 0.15 61 1005.0
20260510014823 48 343 1.7 4.3 0.00 0.15 0.15 61 1005.0
20260510013823 48 307 2.6 5.2 0.00 0.15 0.15 61 1004.8
20260510012823 48 0 2.6 6.1 0.00 0.15 0.15 61 1004.3
20260510012256 49 23 2.6 7.8 0.00 0.15 0.15 60 1004.1
20260510010823 49 355 1.7 6.1 0.00 0.15 0.15 61 1004.0
20260510005823 49 301 2.6 6.1 0.00 0.15 0.15 63 1003.8
20260510004823 50 10 2.6 10.4 0.00 0.15 0.15 63 1003.7
20260510003822 50 287 3.5 8.7 0.00 0.15 0.15 65 1003.5
20260510002820 50 355 1.7 8.7 0.00 0.15 0.15 65 1003.4
20260510001820 50 281 1.7 5.2 0.00 0.15 0.15 66 1003.3
20260510001256 51 336 1.7 7.0 0.00 0.15 0.15 67 1002.9
20260510001146 51 249 2.6 5.2 0.00 0.15 0.15 68 1002.6
20260509235840 51 346 1.7 7.0 0.00 0.15 0.15 66 1002.9
20260509233819 51 351 2.6 7.8 0.00 0.15 0.15 68 1002.3
20260509232818 52 331 2.6 7.0 0.00 0.15 0.15 68 1002.1
20260509232300 52 338 2.6 7.0 0.00 0.15 0.15 68 1002.2
20260509230818 53 29 3.5 8.7 0.00 0.15 0.15 67 1001.9
20260509225819 54 265 3.5 15.6 0.00 0.15 0.15 65 1001.6
20260509225254 55 13 3.5 11.3 0.00 0.15 0.15 63 1001.3
20260509224739 56 97 3.5 12.2 0.00 0.15 0.15 65 1001.1
20260509222812 56 302 4.3 9.6 0.00 0.15 0.15 62 1000.7
20260509221812 57 18 4.3 9.6 0.00 0.15 0.15 63 1000.5
20260509220815 58 334 2.6 9.6 0.00 0.15 0.15 64 1000.2
20260509215815 59 295 2.6 7.0 0.00 0.15 0.15 63 999.8
20260509215733 59 239 4.3 13.0 0.00 0.15 0.15 65 999.7
20260509213813 59 239 4.3 9.6 0.00 0.15 0.15 64 999.6
20260509212812 59 207 4.3 9.6 0.00 0.15 0.15 64 999.6
20260509211812 60 242 3.5 8.7 0.00 0.15 0.15 65 999.5
20260509210806 60 273 3.5 8.7 0.00 0.15 0.15 72 999.3
20260509205806 59 146 4.3 14.8 0.00 0.15 0.15 71 999.2
20260509205202 57 182 2.6 7.8 0.14 0.15 0.15 84 998.6
20260509204831 58 191 3.5 9.6 0.03 0.15 0.15 78 999.1
20260509202807 56 140 2.6 7.0 0.15 0.15 0.15 87 998.8
20260509201807 55 205 4.3 10.4 0.15 0.15 0.15 86 999.0
20260509200805 54 175 2.6 6.1 0.15 0.15 0.15 86 999.1
20260509200245 54 148 4.3 9.6 0.15 0.15 0.15 82 999.1
20260509194806 57 271 4.3 12.2 0.12 0.12 0.12 76 999.9
20260509193806 62 199 4.3 13.0 0.01 0.01 0.02 65 999.8
20260509193254 63 206 3.5 10.4 0.00 0.00 0.00 55 997.9
20260509191805 63 237 3.5 10.4 0.00 0.00 0.00 55 997.7
20260509190806 64 228 7.0 13.0 0.00 0.00 0.00 52 997.8
20260509185806 64 155 7.0 16.5 0.00 0.00 0.00 51 997.8
20260509185237 64 192 7.0 15.6 0.00 0.00 0.00 50 997.7
20260509183805 65 173 7.0 17.4 0.00 0.00 0.00 49 997.7
20260509182804 65 238 8.7 19.1 0.00 0.00 0.00 49 997.8
20260509182247 65 207 8.7 18.2 0.00 0.00 0.00 51 997.8
20260509180759 64 268 8.7 17.4 0.00 0.00 0.00 55 997.9